• In Czech Republic
  • List of Countries
  • For 7 days
  • Water Temperature
  • Satellite Maps
  • Weather Map
  • Weather Widgets
  • user-avatar
    Login

    Hourly Weather Quebec

    Today, 23 June, Saturday

    Time Temperature Precipitation Wind Pressure Humidity
    00:00 +3°C° 0 mm 2 mps 694 mmHg 64%
    01:00 +3°C° 0 mm 2 mps 694 mmHg 68%
    02:00 +2°C° 0 mm 2 mps 694 mmHg 70%
    03:00 +1°C° 0 mm 2 mps 694 mmHg 72%
    04:00 +2°C° 0 mm 1 mps 694 mmHg 74%
    05:00 +3°C° 0 mm 2 mps 695 mmHg 65%
    06:00 +5°C° 0 mm 2 mps 695 mmHg 56%
    07:00 +7°C° 0 mm 3 mps 696 mmHg 48%
    08:00 +8°C° 0 mm 3 mps 696 mmHg 43%
    09:00 +10°C° 0 mm 4 mps 696 mmHg 38%
    10:00 +12°C° 0 mm 4 mps 696 mmHg 33%
    11:00 +12°C° 0 mm 4 mps 696 mmHg 32%
    12:00 +13°C° 0 mm 4 mps 696 mmHg 31%
    13:00 +13°C° 0 mm 5 mps 696 mmHg 31%
    14:00 +13°C° 0 mm 4 mps 696 mmHg 33%
    15:00 +12°C° 0 mm 4 mps 696 mmHg 35%
    16:00 +12°C° 0 mm 4 mps 696 mmHg 38%
    17:00 +11°C° 0 mm 3 mps 696 mmHg 42%
    18:00 +10°C° 0 mm 3 mps 695 mmHg 45%
    19:00 +9°C° 0 mm 2 mps 695 mmHg 49%
    20:00 +8°C° 0 mm 2 mps 695 mmHg 53%
    21:00 +7°C° 0 mm 2 mps 695 mmHg 57%
    22:00 +5°C° 0 mm 2 mps 695 mmHg 61%
    23:00 +4°C° 0 mm 2 mps 695 mmHg 65%

    Tomorrow, 24 June, Sunday

    Time Temperature Precipitation Wind Pressure Humidity
    00:00 +3°C° 0 mm 2 mps 695 mmHg 70%
    01:00 +2°C° 0 mm 2 mps 695 mmHg 75%
    02:00 +1°C° 0 mm 2 mps 695 mmHg 76%
    03:00 +1°C° 0 mm 2 mps 696 mmHg 78%
    04:00 -1°C° 0 mm 2 mps 696 mmHg 80%
    05:00 +2°C° 0 mm 2 mps 696 mmHg 71%
    06:00 +4°C° 0 mm 2 mps 697 mmHg 62%
    07:00 +6°C° 0 mm 2 mps 697 mmHg 53%
    08:00 +8°C° 0 mm 3 mps 697 mmHg 48%
    09:00 +9°C° 0 mm 3 mps 698 mmHg 43%
    10:00 +10°C° 0 mm 3 mps 698 mmHg 38%
    11:00 +11°C° 0 mm 3 mps 698 mmHg 36%
    12:00 +12°C° 0 mm 4 mps 698 mmHg 34%
    13:00 +13°C° 0 mm 4 mps 698 mmHg 32%
    14:00 +13°C° 0 mm 4 mps 698 mmHg 33%
    15:00 +12°C° 0 mm 4 mps 698 mmHg 34%
    16:00 +12°C° 0 mm 4 mps 698 mmHg 35%
    17:00 +11°C° 0 mm 4 mps 698 mmHg 39%
    18:00 +10°C° 0 mm 4 mps 699 mmHg 42%
    19:00 +10°C° 0 mm 4 mps 699 mmHg 45%
    20:00 +7°C° 0 mm 4 mps 699 mmHg 52%
    21:00 +5°C° 0 mm 4 mps 699 mmHg 58%
    22:00 +3°C° 0 mm 3 mps 699 mmHg 64%
    23:00 +2°C° 0 mm 3 mps 700 mmHg 67%

    Day after tomorrow, 25 June, Monday

    Time Temperature Precipitation Wind Pressure Humidity
    00:00 +2°C° 0 mm 3 mps 700 mmHg 70%
    01:00 +1°C° 0 mm 3 mps 700 mmHg 73%
    02:00 0°C° 0 mm 3 mps 700 mmHg 75%
    03:00 0°C° 0 mm 3 mps 701 mmHg 76%
    04:00 -1°C° 0 mm 3 mps 701 mmHg 78%
    05:00 +2°C° 0 mm 3 mps 701 mmHg 69%
    06:00 +4°C° 0 mm 3 mps 702 mmHg 60%
    07:00 +7°C° 0 mm 3 mps 702 mmHg 52%
    08:00 +8°C° 0 mm 3 mps 703 mmHg 47%
    09:00 +10°C° 0 mm 3 mps 703 mmHg 43%
    10:00 +11°C° 0 mm 3 mps 703 mmHg 38%
    11:00 +12°C° 0 mm 3 mps 703 mmHg 36%
    12:00 +13°C° 0 mm 3 mps 703 mmHg 34%
    13:00 +14°C° 0 mm 3 mps 703 mmHg 32%
    14:00 +16°C° 0 mm 3 mps 703 mmHg 31%
    15:00 +16°C° 0 mm 3 mps 703 mmHg 31%
    16:00 +16°C° 0 mm 3 mps 703 mmHg 30%
    17:00 +16°C° 0 mm 2 mps 702 mmHg 35%
    18:00 +15°C° 0 mm 2 mps 702 mmHg 39%
    19:00 +14°C° 0 mm 2 mps 702 mmHg 43%
    20:00 +12°C° 0 mm 2 mps 702 mmHg 47%
    21:00 +10°C° 0 mm 1 mps 702 mmHg 51%
    22:00 +8°C° 0 mm 1 mps 701 mmHg 54%
    23:00 +7°C° 0 mm 2 mps 701 mmHg 55%

    26 June, Tuesday

    Time Temperature Precipitation Wind Pressure Humidity
    00:00 +6°C° 0 mm 2 mps 701 mmHg 56%
    01:00 +6°C° 0 mm 2 mps 701 mmHg 57%
    02:00 +5°C° 0 mm 2 mps 701 mmHg 58%
    03:00 +5°C° 0 mm 2 mps 700 mmHg 60%
    04:00 +3°C° 0 mm 3 mps 700 mmHg 61%
    05:00 +6°C° 0 mm 4 mps 700 mmHg 54%
    06:00 +8°C° 0 mm 5 mps 700 mmHg 47%
    07:00 +11°C° 0 mm 6 mps 700 mmHg 40%
    08:00 +14°C° 0 mm 6 mps 699 mmHg 36%
    09:00 +15°C° 0 mm 6 mps 699 mmHg 32%
    10:00 +17°C° 0 mm 6 mps 699 mmHg 28%
    11:00 +19°C° 0 mm 6 mps 698 mmHg 29%
    12:00 +19°C° 0 mm 6 mps 698 mmHg 30%
    13:00 +20°C° 0 mm 7 mps 698 mmHg 31%
    14:00 +17°C° 0.1 mm 5 mps 697 mmHg 39%
    15:00 +15°C° 0.1 mm 4 mps 697 mmHg 46%
    16:00 +14°C° 0.1 mm 3 mps 696 mmHg 53%
    17:00 +14°C° 0 mm 3 mps 696 mmHg 52%
    18:00 +14°C° 0 mm 3 mps 695 mmHg 51%
    19:00 +14°C° 0 mm 3 mps 695 mmHg 49%
    20:00 +13°C° 0 mm 3 mps 695 mmHg 50%
    21:00 +12°C° 0 mm 3 mps 694 mmHg 51%
    22:00 +13°C° 0 mm 2 mps 694 mmHg 52%
    23:00 +10°C° 0 mm 2 mps 694 mmHg 57%

    27 June, Wednesday

    Time Temperature Precipitation Wind Pressure Humidity
    00:00 +9°C° 0 mm 2 mps 694 mmHg 61%
    01:00 +8°C° 0 mm 2 mps 693 mmHg 66%
    02:00 +8°C° 0 mm 1 mps 693 mmHg 71%
    03:00 +8°C° 0 mm 1 mps 693 mmHg 77%
    04:00 +7°C° 0 mm 1 mps 693 mmHg 82%
    05:00 +9°C° 0 mm 1 mps 693 mmHg 76%
    06:00 +12°C° 0 mm 1 mps 694 mmHg 71%
    07:00 +14°C° 0 mm 1 mps 694 mmHg 65%
    08:00 +16°C° 0 mm 2 mps 694 mmHg 58%
    09:00 +18°C° 0 mm 2 mps 694 mmHg 50%
    10:00 +20°C° 0 mm 3 mps 693 mmHg 43%
    11:00 +20°C° 0 mm 3 mps 693 mmHg 42%
    12:00 +20°C° 0 mm 3 mps 693 mmHg 42%
    13:00 +20°C° 0 mm 3 mps 692 mmHg 42%
    14:00 +20°C° 0 mm 3 mps 692 mmHg 44%
    15:00 +19°C° 0 mm 3 mps 691 mmHg 45%
    16:00 +19°C° 0 mm 3 mps 691 mmHg 47%
    17:00 +18°C° 0 mm 2 mps 691 mmHg 51%
    18:00 +18°C° 0 mm 2 mps 691 mmHg 55%
    19:00 +18°C° 0 mm 1 mps 691 mmHg 59%
    20:00 +15°C° 0 mm 1 mps 690 mmHg 62%
    21:00 +14°C° 0 mm 1 mps 690 mmHg 65%
    22:00 +12°C° 0 mm 1 mps 690 mmHg 68%
    23:00 +12°C° 0 mm 1 mps 690 mmHg 69%

    28 June, Thursday

    Time Temperature Precipitation Wind Pressure Humidity
    00:00 +11°C° 0 mm 1 mps 689 mmHg 70%
    01:00 +10°C° 0 mm 1 mps 689 mmHg 70%
    02:00 +10°C° 0 mm 1 mps 689 mmHg 71%
    03:00 +10°C° 0 mm 1 mps 689 mmHg 72%
    04:00 +10°C° 0 mm 1 mps 688 mmHg 73%
    05:00 +12°C° 0 mm 1 mps 689 mmHg 67%
    06:00 +14°C° 0 mm 1 mps 689 mmHg 61%
    07:00 +16°C° 0 mm 1 mps 689 mmHg 55%
    08:00 +19°C° 0 mm 1 mps 689 mmHg 50%
    09:00 +20°C° 0 mm 2 mps 689 mmHg 45%
    10:00 +21°C° 0 mm 2 mps 689 mmHg 40%
    11:00 +23°C° 0 mm 2 mps 689 mmHg 38%
    12:00 +24°C° 0 mm 2 mps 689 mmHg 36%
    13:00 +25°C° 0 mm 2 mps 688 mmHg 34%
    14:00 +23°C° 0 mm 2 mps 688 mmHg 39%
    15:00 +21°C° 0 mm 2 mps 688 mmHg 44%
    16:00 +20°C° 0 mm 2 mps 688 mmHg 49%
    17:00 +18°C° 0.4 mm 3 mps 687 mmHg 60%
    18:00 +16°C° 0.4 mm 3 mps 687 mmHg 71%
    19:00 +13°C° 0.4 mm 3 mps 687 mmHg 82%
    20:00 +12°C° 0.7 mm 3 mps 687 mmHg 85%
    21:00 +12°C° 0.7 mm 3 mps 687 mmHg 88%
    22:00 +13°C° 0.7 mm 2 mps 687 mmHg 92%
    23:00 +12°C° 0.7 mm 2 mps 687 mmHg 91%
    Show more